COSMOS 2177 (GLONASS)

Satellite information

Favourite Embed

Satellite Type and Status

PAYLOADIN ORBIT

Key statistics

Satellite COSMOS 2177 (GLONASS) at a glance.

Uptime

12324

Days in orbit

Revolutions

≈ 2.1

Per day

Orbit

MEO

Medium Earth Orbit

Inclination

64.7

Latest

Satellite identification and parameters

Extended collection of information and parameters for COSMOS 2177 (GLONASS).

Object identification

Identified? True

Debris? False

Object name: COSMOS 2177 (GLONASS)

International designator: 1992-005A

Object number (NORAD): 21853

Object ID (CCSDS): 21853

Country: COMMONWEALTH OF INDEPENDENT STATES (CIS)

Current information (Y/N): Y

RCS size: LARGE

Orbital parameters

Period: 675.736 minutes

Inclination: 64.7486 deg

SMA: 25508.111 km

Apoapsis: 19150.88 km

Periapsis: 19109.072 km

RAAN: 78.028 deg

Eccentricy: 0.00081951

Argument of periapsis: 176.9421 deg

Mean anomaly: 186.9413 deg

Mean motion: 2.13100912 rev/day

Mean motion (dot): 0.00000016 rev/day2

B* drag term: 0.0 1/REarth

Two-line elements (TLE)

Creation date: Oct. 26, 2025, 2:54 a.m.

Reference frame: TEME

Reference center: EARTH

Epoch: Oct. 25, 2025, 8:55 a.m. UTC

TLE line 0: 0 COSMOS 2177 (GLONASS)

TLE line 1: 1 21853U 92005A 25298.37155873 .00000016 00000-0 00000-0 0 9997

TLE line 2: 2 21853 64.7486 78.0280 0008195 176.9421 186.9413 2.13100912262555

Live tracking on map

Real-time ground track for satellite COSMOS 2177 (GLONASS).

In-orbit conjunctions

There are no conjunctions computed for COSMOS 2177 (GLONASS), at the moment. Check back to stay up to date, as we update our databases every day.

Go to all conjunctions

Associated space launch

GLONASS navigation satellites

COSMOS 2177 (GLONASS) was lifted into orbit during the mission ‘Proton | Uragan 45 to 47’, on board a Proton space rocket.

The launch took place on Jan. 29, 1992, 10:19 p.m. from 81/23 (81L).

For more information about the launch, click the button.

Launch to space Proton | Uragan 45 to 47
Proton | Uragan 45 to 47

Agency: N/A

Status: Launch Successful

Launch date: Jan. 29, 1992, 10:19 p.m. UTC

Rocket: Proton

Launch pad: 81/23 (81L)

Location: Baikonur Cosmodrome, Republic of Kazakhstan

...

Latest news about this satellite

There are no fresh news available about this satellite. Check back as we update our databases every day.


Newsletter sign-up

Weekly statistics, charts and insights to help you stay on top of the space industry.